Concord, NH

6:46 AM EST on February 21, 2018 (GMT -0500)
Concord Municipal

Weather History for KCON - July, 2013

Change the Weather History Date:

Thursday, July 11, 2013

  Actual Average Record
Temperature  
Mean Temperature 75 °F 70 °F  
Max Temperature 83 °F 82 °F 98 °F (1870)
Min Temperature 66 °F 58 °F 38 °F (1898)
Degree Days  
Heating Degree Days 0 1  
Month to date heating degree days 0 11  
Since 1 June heating degree days 72 96  
Since 1 July heating degree days 0 11  
Cooling Degree Days 10 6  
Month to date cooling degree days 109 56  
Year to date cooling degree days 239 158  
Since 1 June cooling degree days 218 140  
Growing Degree Days 25 (Base 50)    
Moisture  
Dew Point 70 °F    
Average Humidity 79    
Maximum Humidity 100    
Minimum Humidity 58    
Precipitation  
Precipitation T in 0.12 in 1.40 in (1976)
Month to date precipitation 2.31 1.24  
Year to date precipitation 21.85 20.59  
Snow  
Snow 0.00 in 0.00 in 0.00 in (2002)
Month to date snowfall 0.0 0.0  
Since 1 June snowfall 0.0 0.0  
Since 1 July snowfall 0.0 0.0  
Snow Depth 0.00 in    
Sea Level Pressure  
Sea Level Pressure 29.81 in    
Wind  
Wind Speed 3 mph (South)    
Max Wind Speed 14 mph    
Max Gust Speed 17 mph    
Visibility 4 miles    
Events Fog , Rain    
T = Trace of Precipitation, MM = Missing Value Source: NWS Daily Summary

Daily Weather History Graph

Daily Weather History Graph

Search for Another Location

Airport or City:

Trip Planner

Search our weather history database for the weather conditions in past years. The results will help you decide how hot, cold, wet, or windy it might be!

Date:

Astronomy

Jul. 11, 2013 Rise Set
Actual Time 5:16 AM EDT 8:25 PM EDT
Civil Twilight 4:42 AM EDT 9:00 PM EDT
Nautical Twilight 3:57 AM EDT 9:44 PM EDT
Astronomical Twilight 3:03 AM EDT 10:38 PM EDT
Moon 8:38 AM EDT (7/11) 9:57 PM EDT (7/11)
Length of Visible Light 16h 18m
Length of Day
15h 09m
Waxing Crescent, 10% of the Moon is Illuminated
Jul 11
Waxing Crescent
Jul 15
First Quarter
Jul 22
Full
Jul 29
Last Quarter
Aug 6
New

Hourly Weather History & Observations

Time (EDT) Temp. Heat Index Dew Point Humidity Pressure Visibility Wind Dir Wind Speed Gust Speed Precip Events Conditions
12:16 AM 71.6 °F - 71.6 °F 100% 29.79 in 1.5 mi Calm Calm - N/A   Partly Cloudy
12:30 AM 71.6 °F - 71.6 °F 100% 29.78 in 0.8 mi Calm Calm - N/A   Partly Cloudy
12:40 AM 71.6 °F - 71.6 °F 100% 29.78 in 0.8 mi South 3.5 mph - N/A   Mist
12:42 AM 71.6 °F - 71.6 °F 100% 29.78 in 1.2 mi South 3.5 mph - N/A   Partly Cloudy
12:46 AM 71.6 °F - 71.6 °F 100% 29.78 in 2.0 mi Calm Calm - N/A   Partly Cloudy
12:51 AM 71.1 °F - 71.1 °F 100% 29.78 in 2.5 mi SSE 3.5 mph - N/A   Partly Cloudy
1:51 AM 71.1 °F - 71.1 °F 100% 29.77 in 1.2 mi Calm Calm - N/A   Clear
2:03 AM 69.8 °F - 69.8 °F 100% 29.77 in 2.0 mi SE 3.5 mph - N/A   Partly Cloudy
2:16 AM 69.8 °F - 69.8 °F 100% 29.76 in 1.5 mi South 4.6 mph - N/A   Scattered Clouds
2:29 AM 71.6 °F - 71.6 °F 100% 29.76 in 1.5 mi SE 3.5 mph - N/A   Mostly Cloudy
2:38 AM 71.6 °F - 71.6 °F 100% 29.76 in 1.0 mi Calm Calm - N/A   Mostly Cloudy
2:51 AM 70.0 °F - 70.0 °F 100% 29.75 in 0.2 mi Calm Calm - N/A Fog Fog
2:59 AM 69.8 °F - 69.8 °F 100% 29.76 in 0.8 mi Calm Calm - N/A   Mostly Cloudy
3:04 AM 69.8 °F - 69.8 °F 100% 29.76 in 1.0 mi Calm Calm - N/A   Scattered Clouds
3:07 AM 69.8 °F - 69.8 °F 100% 29.77 in 0.5 mi Calm Calm - N/A Fog Fog
3:16 AM 69.8 °F - 69.8 °F 100% 29.77 in 0.2 mi Calm Calm - N/A Fog Fog
3:24 AM 69.8 °F - 69.8 °F 100% 29.77 in 0.2 mi SSE 3.5 mph - N/A Fog Fog
3:33 AM 69.8 °F - 69.8 °F 100% 29.77 in 0.8 mi South 3.5 mph - N/A   Overcast
3:51 AM 71.1 °F - 71.1 °F 100% 29.78 in 0.2 mi SSE 4.6 mph - N/A Fog Fog
4:13 AM 71.6 °F - 71.6 °F 100% 29.78 in 0.5 mi South 3.5 mph - N/A Fog Fog
4:19 AM 69.8 °F - 69.8 °F 100% 29.78 in 1.5 mi SSE 3.5 mph - N/A   Overcast
4:41 AM 69.8 °F - 69.8 °F 100% 29.78 in 0.8 mi Calm Calm - N/A   Mist
4:49 AM 69.8 °F - 69.8 °F 100% 29.78 in 0.2 mi Calm Calm - N/A Fog Fog
4:51 AM 69.1 °F - 69.1 °F 100% 29.78 in 0.2 mi Calm Calm - N/A Fog Fog
5:12 AM 69.8 °F - 69.8 °F 100% 29.79 in 1.0 mi South 4.6 mph - N/A   Mostly Cloudy
5:29 AM 69.8 °F - 69.8 °F 100% 29.79 in 0.8 mi South 3.5 mph - N/A   Mostly Cloudy
5:41 AM 69.8 °F - 69.8 °F 100% 29.80 in 1.2 mi Calm Calm - N/A   Scattered Clouds
5:46 AM 69.8 °F - 69.8 °F 100% 29.80 in 2.0 mi Calm Calm - N/A   Partly Cloudy
5:51 AM 70.0 °F - 70.0 °F 100% 29.79 in 2.0 mi Calm Calm - N/A   Partly Cloudy
6:04 AM 69.8 °F - 69.8 °F 100% 29.79 in 1.2 mi Calm Calm - N/A   Partly Cloudy
6:07 AM 69.8 °F - 69.8 °F 100% 29.79 in 0.8 mi Calm Calm - N/A   Mist
6:19 AM 69.8 °F - 69.8 °F 100% 29.79 in 0.2 mi Calm Calm - N/A Fog Fog
6:26 AM 71.6 °F - 71.6 °F 100% 29.79 in 0.8 mi Calm Calm - N/A   Mist
6:34 AM 71.6 °F - 71.6 °F 100% 29.79 in 1.0 mi Calm Calm - N/A   Mist
6:51 AM 71.1 °F - 71.1 °F 100% 29.80 in 1.2 mi Calm Calm - N/A   Mostly Cloudy
6:58 AM 71.6 °F - 71.6 °F 100% 29.80 in 1.8 mi Calm Calm - N/A   Overcast
7:14 AM 71.6 °F - 71.6 °F 100% 29.81 in 1.8 mi Calm Calm - N/A   Scattered Clouds
7:51 AM 72.0 °F - 72.0 °F 100% 29.80 in 2.5 mi Calm Calm - N/A   Scattered Clouds
8:01 AM 71.6 °F - 71.6 °F 100% 29.80 in 3.0 mi Calm Calm - N/A   Partly Cloudy
8:51 AM 73.0 °F - 72.0 °F 96% 29.81 in 4.0 mi Calm Calm - N/A   Overcast
9:51 AM 73.9 °F - 72.0 °F 93% 29.82 in 6.0 mi WNW 3.5 mph - 0.00 in Rain Light Rain
10:51 AM 75.0 °F - 71.1 °F 87% 29.83 in 9.0 mi SSW 3.5 mph - 0.00 in   Overcast
11:51 AM 78.1 °F - 71.1 °F 79% 29.84 in 10.0 mi Calm Calm - N/A   Mostly Cloudy
12:34 PM 78.8 °F - 69.8 °F 74% 29.84 in 10.0 mi Calm Calm - N/A   Mostly Cloudy
12:51 PM 79.0 °F - 70.0 °F 74% 29.83 in 10.0 mi ESE 3.5 mph - N/A   Mostly Cloudy
1:19 PM 80.6 °F 84.6 °F 71.6 °F 74% 29.83 in 10.0 mi SSW 5.8 mph - N/A   Scattered Clouds
1:51 PM 81.0 °F 84.1 °F 69.1 °F 67% 29.82 in 10.0 mi South 4.6 mph - N/A   Mostly Cloudy
2:51 PM 81.0 °F 83.8 °F 68.0 °F 65% 29.83 in 10.0 mi NW 12.7 mph 17.3 mph N/A   Mostly Cloudy
3:51 PM 81.0 °F 83.0 °F 66.0 °F 60% 29.83 in 10.0 mi NNW 10.4 mph - N/A   Scattered Clouds
4:51 PM 81.0 °F 83.3 °F 66.9 °F 62% 29.84 in 10.0 mi North 3.5 mph - N/A   Scattered Clouds
5:51 PM 80.1 °F 81.9 °F 64.9 °F 60% 29.85 in 10.0 mi NNW 4.6 mph - N/A   Overcast
6:51 PM 78.1 °F - 66.0 °F 66% 29.87 in 10.0 mi NW 3.5 mph - N/A   Mostly Cloudy
7:51 PM 77.0 °F - 68.0 °F 74% 29.89 in 10.0 mi Calm Calm - N/A   Scattered Clouds
8:51 PM 73.0 °F - 68.0 °F 84% 29.91 in 10.0 mi WNW 4.6 mph - N/A   Overcast
9:51 PM 72.0 °F - 66.0 °F 81% 29.94 in 10.0 mi NW 3.5 mph - N/A   Overcast
10:51 PM 70.0 °F - 62.1 °F 76% 29.95 in 10.0 mi NNE 4.6 mph - N/A   Mostly Cloudy
11:51 PM 68.0 °F - 61.0 °F 78% 29.96 in 10.0 mi North 3.5 mph - N/A   Scattered Clouds